sat.trackr.live / text

‹ back to catalog

STARLINK-4353

NORAD 53214 · 2022-084AB

PAYLOAD ACTIVE UNKNOWN

§ Identity

Operator
Country
US
Launch date
2022-07-22
Launch site
AFWTR
Launch vehicle
Mass (kg)
RCS (m²)

Purposes: comms

External: N2YO · Heavens-Above · Gunter

§ Orbital elements

Epoch: 2026-09-19T23:00:01.948032Z

Period
93.91 min
Inclination
97.2843°
Eccentricity
0.0001602
Mean motion
15.33433914 rev/d
Perigee alt
464.5 km
Apogee alt
466.7 km
Semi-major
6,843.7 km
B*
1.1301e-5
RAAN
317.7086°
Arg perigee
104.4045°
Mean anomaly
255.7376°
Rev number
22,860

§ Raw data

STARLINK-43531 53214U 22084AB  26262.95835588  .00000290  00000+0  11301-4 0  99902 53214  97.2843 317.7086 0001602 104.4045 255.7376 15.33433914228608

JSON: /api/v1/satellites/53214 · /tle

For live sub-satellite position, see the globe view (requires WebGL).

§ Visibility from observer

Set your observer location to see the next 7 days of passes ≥ 10°. The values pass through the URL so the page stays shareable.

No JS? Fill the form by hand. The geolocation button needs JavaScript.